Tracking 25686 objects as of 26-May-2022
HD Live streaming from Space Station
objects crossing your sky now

FLOCK 4P 10

Track FLOCK 4P 10 now!
10-day predictions
FLOCK 4P 10 is classified as:


NORAD ID: 44808
Int'l Code: 2019-081E
Perigee: 485.3 km
Apogee: 498.9 km
Inclination: 97.4 °
Period: 94.3 minutes
Semi major axis: 6863 km
RCS: Unknown
Launch date: November 27, 2019
Source: United States (US)
Launch site: SRIHARIKOTA (SRI)
aabbcc
Your satellite tracking list
Your tracking list is empty




NASA's NSSDC Master Catalog

Two Line Element Set (TLE):
1 44808U 19081E   22145.61539473  .00014620  00000-0  55428-3 0  9995
2 44808  97.4022 210.7353 0009942 302.6246  57.4032 15.26935349138413
Source of the keplerian elements: AFSPC